Temp
10 10 10 10 10 10 10 10 9 9 9 9 10 9 9 9 9 9 9 10 11 12 12 14 14 14 14 13 15 15 15 17 16 18 19 17 18 17 17 18 19 18 18 18 19
10 10 10 9 9 9 9 9 9 9 9 9 9 8 9 9 9 8 10 11 11 12 12 12 12 13 14 13 14 15 16 17 18 18 18 17 17 16 18 17 18 18 18 17 18
9 9 9 9 9 9 8 8 8 8 8 8 8 9 8 9 8 8 11 11 12 12 11 12 13 13 14 13 13 14 17 17 19 17 17 17 17 17 17 18 16 16 17 17 18
9 9 9 8 8 8 8 8 8 8 8 8 8 7 8 8 8 10 11 12 12 12 11 11 12 12 14 14 14 14 16 18 18 17 17 17 17 17 15 18 16 16 16 17 17
9 9 8 8 8 8 8 8 8 8 8 8 8 8 8 7 7 10 10 11 11 11 11 11 12 12 12 13 14 15 16 17 17 16 16 17 16 16 16 17 16 16 17 17 16
8 8 8 8 8 8 8 8 8 8 7 8 8 7 8 6 9 10 11 11 10 10 11 11 12 13 13 13 14 16 17 18 15 16 16 16 15 16 19 15 16 16 16 16 16
8 8 8 7 8 7 7 8 8 7 7 7 7 7 7 7 10 10 10 11 11 10 11 11 12 13 13 14 14 16 15 15 15 15 15 16 16 14 17 16 15 15 16 16 17
8 7 7 8 7 7 7 8 8 7 7 7 7 7 6 9 9 10 10 11 11 12 11 11 11 13 13 14 15 15 14 15 14 14 15 15 15 15 16 14 15 15 15 16 17
7 7 7 8 7 7 7 8 8 8 8 8 7 7 7 10 9 9 10 10 10 11 12 11 10 13 13 12 13 14 13 13 14 16 14 15 15 17 15 14 15 16 15 16 15
7 7 7 7 7 7 8 9 9 9 8 8 8 7 9 8 9 9 9 10 10 11 10 10 10 11 11 12 13 13 12 14 13 15 15 15 15 16 15 15 14 17 17 16 16
7 7 6 7 7 7 8 8 7 7 8 7 7 8 9 8 8 9 9 9 9 11 10 8 10 12 12 13 14 13 13 14 16 16 15 15 16 16 15 14 15 15 17 16 15
7 6 6 6 7 7 8 7 7 7 8 9 9 9 9 8 8 9 9 9 9 10 10 9 11 12 13 14 14 14 13 14 16 16 16 15 15 17 15 15 16 17 18 18 14
7 6 6 6 6 8 8 7 8 8 7 9 9 8 8 8 9 8 9 9 10 10 9 10 12 12 14 14 14 13 12 13 14 15 16 15 15 15 16 17 16 17 16 14 13
6 6 7 6 7 7 8 8 8 8 6 9 9 8 9 8 9 9 9 10 10 10 10 10 13 13 14 13 14 14 14 14 14 14 13 16 13 14 16 17 15 16 17 14 13
6 6 7 6 7 7 8 8 7 7 6 10 9 9 10 9 10 10 9 11 10 11 10 11 13 12 13 13 15 14 14 14 15 13 14 14 13 14 14 16 18 18 17 13 12
6 6 6 7 7 7 7 7 7 4 7 8 10 10 10 10 10 10 10 10 11 12 11 11 11 12 13 13 14 13 12 12 11 11 9 13 13 13 12 15 16 15 16 15 12
8 8 8 8 7 7 7 6 5 7 9 9 11 11 11 10 11 10 11 10 9 11 11 11 11 11 11 13 14 13 12 9 10 10 10 12 12 15 15 14 14 15 14 11 11
8 8 8 8 7 8 7 4 7 9 9 11 11 12 11 11 11 10 12 11 11 11 11 10 12 11 10 12 13 13 13 10 12 11 11 11 11 14 15 14 13 13 13 11 9
8 8 8 8 7 7 5 4 7 5 7 10 11 11 12 12 11 11 11 11 12 12 12 10 11 11 11 11 12 12 12 11 9 8 7 11 11 13 13 13 13 12 11 10 9
8 8 7 7 7 7 4 7 9 9 10 10 11 11 11 12 11 11 11 12 12 12 11 10 11 11 11 12 11 12 11 12 7 10 11 11 11 13 14 14 13 13 10 10 9
7 7 7 7 7 5 5 4 9 11 11 12 12 12 10 10 10 11 11 12 12 11 10 10 10 10 11 11 11 11 11 11 10 9 10 10 12 11 13 13 12 12 10 10 9
5 6 7 7 8 5 5 8 12 12 11 12 12 12 12 10 11 11 11 12 12 11 11 11 10 11 12 11 12 13 12 10 9 9 6 7 10 13 12 10 11 11 11 10 10
4 5 7 7 6 4 8 11 12 12 12 13 13 13 13 12 12 12 11 12 11 12 11 11 8 11 10 10 11 11 12 12 10 8 6 10 12 13 12 12 12 12 11 11 10
3 5 4 4 5 8 9 10 12 12 12 13 13 13 13 13 11 11 11 12 12 13 13 12 9 9 9 11 10 11 12 11 11 12 13 10 11 13 13 14 13 12 11 10 10
1 4 3 4 6 6 8 9 11 12 12 11 12 11 12 12 12 11 11 12 12 12 10 12 8 5 9 11 9 9 10 12 10 12 12 14 13 15 14 13 12 11 11 10 10
3 3 2 3 4 7 7 8 9 9 11 11 11 11 11 12 12 11 11 11 12 11 11 8 7 6 11 10 10 8 9 9 11 12 11 12 11 14 13 12 12 13 12 11 11
1 2 2 4 4 6 6 7 8 8 10 9 10 11 12 11 11 11 10 10 11 10 9 9 6 5 7 8 9 9 10 10 9 10 11 11 13 13 13 12 12 11 11 11 11
Height
808 805 801 798 794 789 785 781 779 776 775 773 773 776 778 780 780 781 781 782 782 782 786 787 789 790 792 795 796 801 811 809 810 807 806 806 806 805 801 802 797 798 798 794 795
807 803 800 796 792 788 783 780 778 774 771 770 770 773 776 778 779 778 776 779 780 783 785 786 788 790 791 793 795 797 807 804 794 797 804 807 808 811 807 806 804 803 801 799 797
806 801 799 796 792 788 784 780 777 775 772 771 771 772 775 777 779 775 772 773 777 780 783 785 787 789 791 793 796 797 794 795 793 797 801 807 809 810 812 810 812 815 809 807 803
805 801 799 796 792 789 786 783 779 776 775 774 772 773 774 777 781 771 769 770 774 778 782 785 787 791 789 793 792 799 792 793 796 798 804 807 806 810 814 809 809 808 806 806 806
805 801 798 796 793 789 787 784 781 778 776 776 776 775 776 779 776 770 771 770 774 778 780 784 785 790 792 791 790 793 792 795 796 801 804 803 810 812 808 807 807 804 802 803 806
805 801 798 796 793 791 787 785 782 780 778 776 776 776 777 782 773 772 770 773 773 775 779 784 783 785 790 789 791 786 787 788 800 800 805 806 812 812 799 805 807 807 806 805 806
802 799 797 794 791 790 787 785 782 780 779 778 776 776 778 777 773 772 771 771 774 775 777 780 782 783 785 788 786 786 794 801 803 803 806 809 817 817 804 806 810 811 809 807 805
802 799 796 792 790 788 785 783 782 779 777 779 778 777 776 771 771 770 770 770 771 771 777 779 784 784 787 784 787 792 797 804 803 807 810 816 818 812 807 814 812 811 811 808 805
799 797 792 790 789 786 783 781 781 779 778 778 779 779 776 771 771 770 770 770 769 770 774 779 784 784 786 791 797 793 804 805 807 800 806 815 815 802 806 815 813 811 811 810 808
797 794 790 789 786 784 781 778 779 779 779 779 780 783 774 775 772 772 771 771 771 773 779 782 786 786 791 787 789 793 804 801 805 800 802 807 807 801 806 811 812 808 807 809 809
794 791 789 786 785 782 780 779 783 782 780 781 781 778 774 774 773 774 774 775 774 769 779 791 787 778 782 783 781 792 798 802 796 794 802 805 808 802 807 811 811 809 804 805 806
791 788 787 784 783 781 781 780 783 784 781 776 775 775 774 773 773 773 774 775 772 770 779 796 785 783 781 782 785 789 801 803 796 795 801 807 808 802 805 805 809 802 795 794 804
788 786 783 782 781 782 780 780 781 780 785 778 776 775 775 774 771 775 774 775 772 777 786 785 778 780 779 786 789 793 800 804 804 802 803 806 809 805 799 797 801 801 800 800 799
785 783 781 780 782 781 781 781 781 781 790 778 775 775 774 773 773 773 773 774 777 777 783 784 774 779 781 786 788 795 793 793 801 807 818 802 819 806 796 794 798 793 792 795 796
782 780 779 779 779 781 781 780 781 783 801 774 774 774 771 772 771 772 770 766 776 776 787 782 776 783 785 786 784 793 792 795 800 811 808 810 817 798 796 790 777 775 783 787 789
778 776 776 778 780 781 781 781 783 801 797 781 772 770 769 767 770 771 769 774 774 773 780 783 785 786 787 787 787 794 798 806 814 817 841 812 814 797 797 780 779 780 777 778 782
775 773 774 776 780 779 780 782 795 791 779 777 767 763 764 766 766 769 767 773 781 778 780 783 790 792 790 790 790 795 803 837 836 839 837 814 816 784 779 781 775 773 774 776 779
774 772 773 775 776 778 778 790 792 778 775 767 765 762 767 768 768 773 768 774 774 771 782 791 793 794 795 793 794 797 801 827 821 829 824 819 811 785 771 770 772 770 771 772 776
773 772 773 774 776 777 784 806 787 793 782 772 763 766 766 765 767 769 772 771 768 769 776 799 798 797 796 796 797 801 807 809 834 842 851 816 801 784 773 772 772 774 773 773 776
772 772 773 774 776 778 788 784 777 773 769 768 768 763 766 766 771 770 770 769 771 770 772 788 796 795 799 796 801 798 805 810 841 835 826 817 811 793 777 772 771 771 775 776 778
773 774 775 775 775 780 790 792 770 765 764 764 764 761 769 776 775 772 771 769 768 775 776 783 789 802 798 801 803 803 807 808 816 830 824 823 800 785 776 772 772 769 771 774 776
775 781 776 776 779 786 788 772 760 759 764 763 764 763 763 771 769 770 769 768 766 768 775 780 796 798 795 798 796 794 800 809 823 828 846 846 810 772 776 777 772 767 768 771 775
779 780 776 776 787 793 770 761 760 759 759 758 759 760 760 763 766 768 769 766 767 768 775 779 804 797 803 806 800 796 796 796 812 825 839 820 795 771 772 767 765 767 769 773 774
779 786 781 779 783 776 773 768 760 758 759 760 761 761 760 763 769 771 770 769 768 768 767 771 793 796 804 789 795 794 790 793 798 795 791 798 788 773 767 766 766 768 770 772 775
784 791 794 793 784 782 779 775 765 762 760 761 762 765 764 765 767 772 773 772 772 771 776 774 796 814 793 787 796 796 791 787 795 788 786 775 774 766 764 766 766 766 768 771 773
787 790 794 795 790 782 784 781 777 774 767 766 765 768 767 765 765 770 772 774 771 776 779 788 808 810 786 789 789 800 792 794 786 783 787 779 778 763 761 762 763 759 762 765 765
787 789 790 794 790 786 792 788 782 781 773 773 771 768 766 769 769 769 770 771 770 776 783 786 805 814 813 802 797 798 779 781 783 780 776 781 757 759 759 759 758 757 758 760 761
Wind_Speed
19 19 20 22 26 26 24 22 20 19 19 21 20 15 11 7 7 9 7 7 15 11 3 11 12 5 2 5 5 1 2 9 9 7 3 2 3 6 5 3 3 5 4 3 24
21 20 20 24 25 22 19 16 17 15 14 13 11 10 9 4 5 10 16 14 18 15 8 5 6 6 2 5 5 5 11 8 4 2 5 3 5 5 6 8 7 7 11 7 21
21 18 20 23 21 17 15 14 14 12 12 4 4 6 4 3 1 5 12 21 21 15 9 2 9 5 4 4 5 5 18 4 2 8 5 2 3 3 5 4 4 6 11 6 11
20 18 19 20 16 14 14 13 13 10 10 6 2 4 3 4 4 1 13 15 21 13 9 5 5 7 8 6 5 5 9 9 2 5 3 1 3 3 2 3 6 8 8 5 8
20 18 16 16 13 13 12 11 11 9 6 6 3 2 4 2 6 5 8 5 13 13 9 6 7 5 6 5 6 3 7 12 6 5 5 4 5 2 10 2 6 13 10 6 7
19 18 15 14 13 13 11 11 9 8 5 4 2 4 3 1 2 3 7 3 5 4 11 12 6 5 4 6 7 7 5 13 11 10 6 3 4 6 9 7 10 12 11 6 7
18 17 16 14 13 12 12 12 10 8 5 4 2 3 2 7 1 10 10 6 2 11 7 20 9 7 5 3 4 2 7 6 8 5 4 6 6 7 11 9 9 10 9 7 5
18 17 16 14 13 12 12 12 11 7 4 6 2 1 3 3 7 5 8 6 11 9 17 23 10 3 2 2 5 5 6 4 5 11 4 8 7 8 4 7 10 9 9 9 7
17 17 15 13 13 11 12 13 10 6 3 1 1 1 5 7 1 1 2 3 15 9 12 16 3 3 1 7 4 5 6 6 5 15 10 10 3 11 5 6 8 10 7 8 8
19 17 16 13 12 11 11 11 4 2 1 1 4 2 1 3 4 3 2 4 4 13 8 4 4 4 2 7 18 10 6 3 6 14 9 13 6 9 7 3 9 13 11 7 8
19 18 17 14 11 9 9 2 4 3 3 2 5 3 4 6 3 3 3 4 2 7 6 6 6 14 7 4 1 8 6 6 2 6 5 11 3 6 8 4 12 15 15 8 10
19 19 17 13 9 7 3 3 2 2 2 2 3 2 1 2 4 1 1 3 4 11 12 3 9 6 6 5 6 8 7 5 2 4 9 6 9 9 12 13 16 17 16 14 6
20 20 16 10 6 2 2 5 3 2 2 4 1 2 3 4 3 2 0 3 7 7 6 5 9 8 6 5 6 3 8 6 6 5 2 6 5 7 8 10 11 15 16 8 8
22 19 13 6 1 2 1 5 1 2 3 4 1 1 1 3 3 1 1 2 4 6 7 3 9 8 6 5 5 3 5 6 8 5 4 3 4 9 10 12 8 16 18 13 9
23 17 7 2 3 3 3 5 1 3 5 5 2 1 3 1 4 3 4 4 6 6 3 3 10 8 5 6 3 2 5 6 3 4 3 1 1 5 5 16 24 22 15 10 10
21 10 2 4 2 2 4 2 2 4 1 2 1 2 2 1 2 1 3 1 1 5 4 4 2 4 2 3 3 6 6 7 5 3 2 6 5 5 6 12 3 7 15 14 10
14 4 5 6 3 6 2 3 4 5 2 3 2 2 1 4 4 2 1 5 2 5 3 6 3 2 2 7 4 4 5 3 2 2 4 1 6 11 5 6 6 8 8 9 8
6 4 5 3 6 4 3 4 6 2 2 1 1 2 4 3 5 2 5 3 4 3 5 3 5 2 5 3 5 2 4 5 5 3 3 0 6 5 5 6 6 6 7 6 8
2 4 3 1 3 3 3 4 5 5 4 2 2 3 2 1 2 2 3 1 3 0 5 5 2 1 3 2 2 4 2 3 6 2 3 4 6 8 10 8 5 7 4 6 7
2 2 2 3 2 2 3 2 1 3 2 0 2 4 3 2 2 2 2 3 3 3 2 4 6 1 1 1 5 4 4 3 3 1 3 4 5 6 6 7 7 5 7 6 7
0 2 3 1 1 3 3 5 3 4 3 3 1 2 4 4 2 2 4 3 3 3 4 4 4 2 3 3 5 2 2 2 2 4 4 2 5 6 5 7 8 7 7 8 8
2 1 2 2 1 1 1 4 3 3 2 1 2 2 3 5 2 1 4 1 4 6 4 2 5 4 2 1 1 2 4 5 3 4 1 2 7 2 6 7 6 6 5 7 6
2 1 2 2 1 2 4 2 1 2 2 2 1 2 2 2 3 1 1 4 5 5 7 6 1 4 1 2 1 4 6 4 4 3 6 4 6 1 3 5 3 4 5 6 6
3 2 3 3 1 1 3 3 2 1 2 2 1 1 2 3 4 3 2 3 1 1 3 5 3 5 6 4 4 5 14 11 10 8 7 12 7 7 6 4 4 4 5 7 7
3 1 2 3 3 3 2 4 3 2 2 4 3 4 1 2 1 2 2 1 4 3 4 2 3 2 3 2 4 3 5 17 16 15 13 6 18 15 13 8 7 8 7 7 7
3 2 3 1 2 3 6 4 6 6 4 3 3 3 1 2 2 4 4 3 4 1 2 2 3 3 1 1 2 2 7 10 17 20 16 20 21 12 4 5 4 7 9 8 9
2 2 3 3 2 1 2 3 4 5 4 5 3 1 2 2 2 3 3 1 2 7 3 3 5 3 3 2 3 5 11 12 5 6 15 15 23 3 6 7 8 8 8 9 7
Wind_Direction
341 335 338 337 331 323 319 313 306 302 291 275 255 244 243 245 252 261 241 219 232 252 310 224 205 205 152 175 159 112 243 210 182 164 164 52 65 335 297 296 352 2 302 290 154
340 342 345 342 335 335 338 339 327 317 312 295 257 222 225 217 274 259 249 231 239 245 263 234 168 158 233 158 201 188 201 225 184 72 116 92 82 319 8 342 34 13 0 107 147
343 347 350 347 350 357 6 7 8 1 350 353 269 214 186 203 69 254 288 229 225 228 229 218 176 145 203 132 200 209 206 187 68 120 90 88 76 354 359 29 103 326 315 304 166
340 352 356 353 356 6 7 12 14 16 16 25 78 162 187 144 206 217 8 226 218 206 171 176 171 159 183 183 179 186 213 201 62 88 92 107 139 11 325 230 322 316 256 254 218
341 350 355 354 2 4 3 7 12 10 15 2 9 142 121 61 256 298 334 64 214 194 185 199 176 147 165 174 139 233 174 198 157 127 88 88 35 296 276 297 329 346 336 226 229
342 341 348 349 344 349 352 349 358 0 4 18 47 151 106 227 292 351 289 254 69 321 199 198 222 153 180 178 178 185 190 177 150 160 138 103 31 3 275 24 348 346 328 299 241
340 337 340 336 333 336 336 335 337 335 338 3 124 161 146 240 288 290 323 241 343 275 216 193 234 162 169 137 158 0 115 127 162 145 116 89 278 246 279 0 327 327 319 289 265
340 336 334 329 325 326 320 321 324 334 300 297 293 320 255 293 313 277 287 245 320 254 198 183 206 241 229 98 96 160 117 151 183 164 104 122 234 237 254 331 299 308 310 311 296
337 334 327 323 320 324 315 313 310 336 32 110 143 193 284 330 85 325 90 11 322 142 155 164 9 186 133 120 117 192 163 149 152 182 150 180 214 233 150 237 281 288 284 282 298
335 333 327 323 322 319 314 311 261 305 1 269 279 349 311 340 307 71 47 20 352 114 92 118 292 154 151 162 186 168 133 147 154 193 173 184 205 149 169 246 274 278 276 262 261
332 330 325 319 316 317 323 290 27 337 51 265 276 264 293 318 184 81 145 216 330 139 142 152 217 193 183 170 104 115 112 145 97 180 145 199 218 152 185 174 276 268 264 245 253
333 330 325 318 310 317 331 93 82 144 326 283 310 261 263 320 157 130 195 172 238 117 110 157 199 192 133 126 111 121 127 156 97 171 188 161 209 238 173 183 221 254 267 259 221
334 331 323 315 302 289 106 135 106 125 80 316 288 316 301 308 62 129 49 173 84 97 117 150 162 153 133 126 108 60 152 167 152 112 50 141 243 212 235 196 198 220 237 269 246
336 335 326 307 212 153 245 168 99 91 48 16 291 33 309 341 64 88 273 179 86 109 113 270 145 141 149 100 115 99 161 129 136 124 183 193 254 235 224 226 220 233 232 231 214
339 339 326 198 148 154 166 174 82 66 56 8 338 185 211 336 142 35 291 24 98 138 144 199 152 133 144 140 109 152 141 118 88 91 115 168 236 234 169 229 227 225 231 219 202
342 343 199 176 182 136 147 156 94 53 322 25 257 206 202 132 80 97 36 64 252 108 72 80 32 63 99 80 70 154 81 55 57 80 340 201 186 233 199 223 229 220 235 224 196
349 28 136 145 134 156 148 82 35 78 305 352 6 318 84 48 99 55 1 99 156 128 146 80 35 29 31 91 42 73 78 46 21 358 219 276 203 255 258 230 220 237 234 229 193
354 114 145 124 146 166 148 51 68 276 223 274 218 45 57 356 49 131 121 160 193 117 84 123 144 19 357 98 156 178 140 146 178 201 247 145 235 255 257 295 246 262 259 207 182
137 160 142 147 171 175 80 52 191 209 186 198 113 94 38 161 122 137 149 170 138 85 123 126 70 61 51 56 76 183 143 152 109 38 46 240 289 286 269 279 292 277 209 199 167
171 165 116 127 166 43 81 162 176 200 186 53 249 157 122 150 98 74 122 183 117 20 70 156 122 320 3 155 37 90 160 63 5 135 268 285 278 239 300 306 299 250 225 186 160
176 55 131 89 197 41 136 204 218 212 184 176 313 344 127 180 174 207 178 139 142 132 97 123 89 105 122 192 163 98 123 86 134 145 188 279 261 207 239 284 288 268 197 183 171
75 33 64 98 50 65 166 195 181 152 156 286 126 298 157 159 138 282 196 240 155 148 101 136 121 146 149 289 212 192 196 157 149 223 153 144 269 235 260 275 272 270 198 172 170
78 278 47 119 100 324 296 292 246 117 144 125 45 62 16 110 106 55 355 348 149 150 161 171 155 119 75 337 340 196 198 201 96 61 194 187 257 202 296 347 327 211 197 186 166
83 21 332 53 41 47 350 3 329 336 80 89 111 46 50 60 23 139 102 347 86 171 128 93 124 147 183 190 144 199 213 199 200 232 228 232 278 283 291 316 308 250 214 187 179
29 81 158 320 10 358 21 348 311 24 4 32 73 78 122 120 75 117 131 106 31 114 45 84 167 104 266 232 148 215 212 216 221 227 233 262 243 257 256 265 234 226 200 179 177
109 92 12 355 313 346 12 11 12 329 353 11 74 342 359 136 168 199 143 182 183 127 119 15 151 133 158 7 204 271 228 218 230 237 249 254 278 248 259 293 264 216 194 198 195
87 108 115 341 349 70 34 350 16 349 46 55 335 42 54 62 351 321 195 191 202 155 137 119 130 83 273 356 297 276 229 207 189 220 223 238 245 211 258 242 241 227 204 206 201